カタログに戻る

XIGUANG 1-02

運用中科学SSO
NORAD 64092·PAYLOAD·🇨🇳 China
この衛星名は、まだ公式ソースで確認されていません。

打ち上げ May 21, 2025 から Jiuquan Satellite Launch Center

Loading…

次のパス (今後24時間)

TLE

最新Source: Space-Track

元期: Sep 14, 2026, 15:46 UTC

1 64092U 25108F   26257.65763611  .00015319  00000-0  52026-3 0  9991
2 64092  97.4627 335.6771 0011047  51.8318 308.3916 15.30524919 73176

AllMySatでXIGUANG 1-02をリアルタイム追跡

Download on the App Store